Location: Columbia
(38.9520°N, 92.3340°W)
Time: 14:00:49
(UTC-06:00)

Tiangong 1 - Visible Passes

Search period start: 20 January 2017 00:00
Search period end: 30 January 2017 00:00
Orbit: 344 x 365 km, 42.8° (Epoch: 20 January)

Date Brightness Start Highest point End Pass type
(mag) Time Alt. Az. Time Alt. Az. Time Alt. Az.
21 Jan 3.8 19:08:31 10° S 19:08:41 11° S 19:08:41 11° S visible
22 Jan 4.1 19:34:12 10° SW 19:34:34 13° SW 19:34:34 13° SW visible
23 Jan 2.6 18:25:34 10° SSW 18:27:53 21° SSE 18:28:44 18° ESE visible
24 Jan 1.0 18:51:29 10° SW 18:54:25 57° SSE 18:54:25 57° SSE visible
25 Jan 2.6 19:18:08 10° W 19:20:01 34° W 19:20:01 34° W visible
26 Jan 0.9 18:08:41 10° WSW 18:11:39 73° SSE 18:13:55 16° ENE visible
26 Jan 4.2 19:45:01 10° WNW 19:45:31 13° WNW 19:45:31 13° WNW visible
27 Jan 1.3 18:35:22 10° W 18:38:17 53° NNW 18:39:22 32° NE visible
28 Jan 2.0 19:02:12 10° WNW 19:04:45 36° NNW 19:04:45 36° NNW visible
29 Jan 1.5 17:52:28 10° W 17:55:22 47° NNW 17:58:16 10° ENE visible
29 Jan 3.4 19:28:54 10° WNW 19:30:07 20° NW 19:30:07 20° NW visible
